Location: Maccacari
(45.1333°N, 11.1333°E)
Time: 02:33:14
(UTC+00:00)

Altair - Pass Details

Date: 24 January 2021
Orbit: 1501 x 1682 km, 47.2° (Epoch: 01 March)

Event Time Altitude Azimuth Distance (km) Brightness Sun altitude
Rises 02:57:06 0° 202° (SSW) 4,823 - -39.7°
Reaches altitude 10° 03:00:34 10° 194° (SSW) 3,864 - -39.2°
Exits shadow 03:05:00 25° 173° (S) 2,860 8.8 -38.4°
Maximum altitude 03:09:07 34° 134° (SE) 2,486 8.7 -37.7°
Drops below altitude 10° 03:17:50 10° 74° (ENE) 3,948 10.4 -36.2°
Sets 03:21:22 0° 66° (ENE) 4,940 11.1 -35.5°
